• In Belarus
  • List of Countries
  • For 7 days
  • Water Temperature
  • Satellite Maps
  • Weather Map
  • Weather Widgets
  • user-avatar
    Login

    Hourly Weather Chişinău

    Today, 14 November, Wednesday

    Time Temperature Precipitation Wind Pressure Humidity
    00:00 -2°C° 0 mm 3 mps 764 mmHg 61%
    01:00 -2°C° 0 mm 3 mps 764 mmHg 62%
    02:00 -2°C° 0 mm 2 mps 763 mmHg 63%
    03:00 -2°C° 0 mm 3 mps 763 mmHg 65%
    04:00 -2°C° 0 mm 3 mps 762 mmHg 66%
    05:00 -2°C° 0 mm 3 mps 762 mmHg 67%
    06:00 -2°C° 0 mm 3 mps 762 mmHg 68%
    07:00 -2°C° 0 mm 3 mps 762 mmHg 70%
    08:00 -1°C° 0 mm 2 mps 762 mmHg 72%
    09:00 +1°C° 0.1 mm 2 mps 762 mmHg 71%
    10:00 +1°C° 0.1 mm 2 mps 762 mmHg 71%
    11:00 +2°C° 0.1 mm 2 mps 762 mmHg 71%
    12:00 +3°C° 0.2 mm 2 mps 761 mmHg 72%
    13:00 +4°C° 0.2 mm 2 mps 761 mmHg 72%
    14:00 +5°C° 0.2 mm 1 mps 761 mmHg 72%
    15:00 +5°C° 0.3 mm 1 mps 760 mmHg 75%
    16:00 +5°C° 0.3 mm 1 mps 760 mmHg 78%
    17:00 +4°C° 0.3 mm 0 mps 760 mmHg 80%
    18:00 +4°C° 0.1 mm 0 mps 760 mmHg 82%
    19:00 +3°C° 0.1 mm 0 mps 760 mmHg 84%
    20:00 +3°C° 0.1 mm 0 mps 760 mmHg 86%
    21:00 +3°C° 0 mm 0 mps 760 mmHg 87%
    22:00 +3°C° 0 mm 0 mps 759 mmHg 88%
    23:00 +4°C° 0 mm 1 mps 759 mmHg 89%

    Tomorrow, 15 November, Thursday

    Time Temperature Precipitation Wind Pressure Humidity
    00:00 +3°C° 0 mm 1 mps 759 mmHg 90%
    01:00 +3°C° 0 mm 1 mps 759 mmHg 90%
    02:00 +3°C° 0 mm 1 mps 759 mmHg 91%
    03:00 +4°C° 0.2 mm 1 mps 759 mmHg 92%
    04:00 +4°C° 0.2 mm 1 mps 759 mmHg 92%
    05:00 +4°C° 0.2 mm 1 mps 758 mmHg 93%
    06:00 +4°C° 0.4 mm 2 mps 759 mmHg 93%
    07:00 +4°C° 0.4 mm 2 mps 759 mmHg 93%
    08:00 +4°C° 0.4 mm 2 mps 759 mmHg 93%
    09:00 +4°C° 0.2 mm 3 mps 759 mmHg 88%
    10:00 +5°C° 0.2 mm 3 mps 759 mmHg 84%
    11:00 +5°C° 0.2 mm 3 mps 759 mmHg 80%
    12:00 +5°C° 0.1 mm 3 mps 759 mmHg 78%
    13:00 +7°C° 0.1 mm 3 mps 759 mmHg 77%
    14:00 +7°C° 0.1 mm 3 mps 759 mmHg 75%
    15:00 +5°C° 0.1 mm 3 mps 760 mmHg 77%
    16:00 +5°C° 0.1 mm 3 mps 760 mmHg 78%
    17:00 +4°C° 0.1 mm 3 mps 760 mmHg 80%
    18:00 +4°C° 0 mm 3 mps 761 mmHg 80%
    19:00 +4°C° 0 mm 4 mps 761 mmHg 81%
    20:00 +4°C° 0 mm 4 mps 762 mmHg 81%
    21:00 +3°C° 0 mm 4 mps 762 mmHg 80%
    22:00 +3°C° 0 mm 4 mps 762 mmHg 80%
    23:00 +2°C° 0 mm 5 mps 762 mmHg 79%

    Day after tomorrow, 16 November, Friday

    Time Temperature Precipitation Wind Pressure Humidity
    00:00 +2°C° 0 mm 5 mps 763 mmHg 78%
    01:00 +1°C° 0 mm 5 mps 763 mmHg 78%
    02:00 +1°C° 0 mm 5 mps 763 mmHg 77%
    03:00 +1°C° 0.1 mm 5 mps 763 mmHg 77%
    04:00 +1°C° 0.1 mm 5 mps 763 mmHg 76%
    05:00 +1°C° 0.1 mm 5 mps 763 mmHg 75%
    06:00 -1°C° 0.1 mm 6 mps 763 mmHg 74%
    07:00 -1°C° 0.1 mm 6 mps 764 mmHg 72%
    08:00 -1°C° 0.1 mm 6 mps 764 mmHg 71%
    09:00 -1°C° 0.1 mm 6 mps 764 mmHg 70%
    10:00 -1°C° 0.1 mm 6 mps 765 mmHg 70%
    11:00 -1°C° 0.1 mm 6 mps 765 mmHg 69%
    12:00 -1°C° 0.2 mm 6 mps 765 mmHg 70%
    13:00 -1°C° 0.2 mm 6 mps 765 mmHg 70%
    14:00 +1°C° 0.2 mm 6 mps 765 mmHg 71%
    15:00 -1°C° 0.2 mm 6 mps 765 mmHg 71%
    16:00 -1°C° 0.2 mm 6 mps 765 mmHg 72%
    17:00 0°C° 0.2 mm 5 mps 765 mmHg 73%
    18:00 0°C° 0.1 mm 5 mps 765 mmHg 73%
    19:00 0°C° 0.1 mm 5 mps 765 mmHg 72%
    20:00 0°C° 0.1 mm 5 mps 766 mmHg 72%
    21:00 0°C° 0 mm 5 mps 766 mmHg 71%
    22:00 0°C° 0 mm 5 mps 766 mmHg 71%
    23:00 -1°C° 0 mm 5 mps 766 mmHg 70%

    17 November, Saturday

    Time Temperature Precipitation Wind Pressure Humidity
    00:00 -1°C° 0 mm 5 mps 766 mmHg 71%
    01:00 -1°C° 0 mm 5 mps 766 mmHg 71%
    02:00 -1°C° 0 mm 5 mps 766 mmHg 71%
    03:00 -1°C° 0.1 mm 5 mps 766 mmHg 71%
    04:00 -1°C° 0.1 mm 5 mps 766 mmHg 70%
    05:00 -2°C° 0.1 mm 5 mps 766 mmHg 70%
    06:00 -2°C° 0 mm 5 mps 767 mmHg 67%
    07:00 -2°C° 0 mm 5 mps 767 mmHg 64%
    08:00 -4°C° 0 mm 5 mps 767 mmHg 61%
    09:00 -2°C° 0 mm 5 mps 767 mmHg 57%
    10:00 -1°C° 0 mm 5 mps 767 mmHg 53%
    11:00 -1°C° 0 mm 5 mps 767 mmHg 50%
    12:00 0°C° 0 mm 5 mps 767 mmHg 49%
    13:00 0°C° 0 mm 5 mps 767 mmHg 49%
    14:00 +1°C° 0 mm 5 mps 766 mmHg 48%
    15:00 +1°C° 0 mm 5 mps 766 mmHg 49%
    16:00 0°C° 0 mm 4 mps 766 mmHg 50%
    17:00 0°C° 0 mm 4 mps 766 mmHg 51%
    18:00 0°C° 0 mm 4 mps 766 mmHg 52%
    19:00 0°C° 0 mm 4 mps 767 mmHg 53%
    20:00 0°C° 0 mm 4 mps 767 mmHg 53%
    21:00 0°C° 0 mm 4 mps 766 mmHg 54%
    22:00 0°C° 0 mm 3 mps 766 mmHg 55%
    23:00 0°C° 0 mm 3 mps 766 mmHg 55%

    18 November, Sunday

    Time Temperature Precipitation Wind Pressure Humidity
    00:00 0°C° 0 mm 3 mps 766 mmHg 57%
    01:00 -1°C° 0 mm 3 mps 766 mmHg 58%
    02:00 -1°C° 0 mm 3 mps 766 mmHg 60%
    03:00 -2°C° 0 mm 3 mps 766 mmHg 61%
    04:00 -2°C° 0 mm 3 mps 765 mmHg 62%
    05:00 -4°C° 0 mm 3 mps 765 mmHg 64%
    06:00 -4°C° 0 mm 3 mps 765 mmHg 63%
    07:00 -4°C° 0 mm 3 mps 765 mmHg 62%
    08:00 -4°C° 0 mm 3 mps 765 mmHg 61%
    09:00 -1°C° 0 mm 3 mps 764 mmHg 55%
    10:00 0°C° 0 mm 3 mps 764 mmHg 49%
    11:00 +1°C° 0 mm 3 mps 764 mmHg 43%
    12:00 +2°C° 0 mm 3 mps 763 mmHg 41%
    13:00 +3°C° 0 mm 3 mps 762 mmHg 39%
    14:00 +3°C° 0 mm 3 mps 761 mmHg 37%
    15:00 +2°C° 0 mm 3 mps 761 mmHg 41%
    16:00 +2°C° 0 mm 2 mps 760 mmHg 44%
    17:00 +1°C° 0 mm 2 mps 759 mmHg 47%
    18:00 +1°C° 0 mm 2 mps 759 mmHg 48%
    19:00 +1°C° 0 mm 2 mps 759 mmHg 49%
    20:00 -1°C° 0 mm 2 mps 758 mmHg 50%
    21:00 -1°C° 0 mm 2 mps 758 mmHg 49%
    22:00 -1°C° 0 mm 2 mps 757 mmHg 49%
    23:00 -1°C° 0 mm 2 mps 757 mmHg 49%

    19 November, Monday

    Time Temperature Precipitation Wind Pressure Humidity
    00:00 -1°C° 0 mm 3 mps 756 mmHg 51%
    01:00 -1°C° 0 mm 3 mps 756 mmHg 53%
    02:00 -1°C° 0 mm 3 mps 755 mmHg 55%
    03:00 -1°C° 0.1 mm 3 mps 755 mmHg 63%
    04:00 -1°C° 0.1 mm 3 mps 755 mmHg 71%
    05:00 -1°C° 0.1 mm 3 mps 755 mmHg 79%
    06:00 -1°C° 0.1 mm 3 mps 755 mmHg 81%
    07:00 -1°C° 0.1 mm 3 mps 755 mmHg 83%
    08:00 0°C° 0.1 mm 3 mps 755 mmHg 86%
    09:00 0°C° 0 mm 3 mps 755 mmHg 83%
    10:00 +1°C° 0 mm 3 mps 755 mmHg 80%
    11:00 +1°C° 0 mm 3 mps 755 mmHg 77%
    12:00 +2°C° 0 mm 3 mps 755 mmHg 75%
    13:00 +2°C° 0 mm 3 mps 755 mmHg 73%
    14:00 +2°C° 0 mm 3 mps 754 mmHg 71%
    15:00 +3°C° 0 mm 2 mps 755 mmHg 73%
    16:00 +2°C° 0 mm 2 mps 755 mmHg 76%
    17:00 +3°C° 0 mm 1 mps 755 mmHg 79%
    18:00 +2°C° 0 mm 1 mps 755 mmHg 81%
    19:00 +2°C° 0 mm 1 mps 755 mmHg 83%
    20:00 +2°C° 0 mm 1 mps 755 mmHg 85%
    21:00 +1°C° 0 mm 1 mps 755 mmHg 86%
    22:00 +1°C° 0 mm 1 mps 755 mmHg 87%
    23:00 +1°C° 0 mm 1 mps 755 mmHg 88%
    Show more